Regional Weather Roundup
Issued by NWS

Home | Current Version | Previous Version | Text Only | Print | Product List | Glossary On
Versions: 1 2 3 4 5 6 7 8 9 10 11 12 13 14 15 16 17 18 19 20 21 22 23 24 25 26 27 28 29 30 31 32 33 34 35 36 37 38 39 40 41 42 43 44 45 46 47 48 49 50
000
ASUS43 KMKX 241620
RWRWI

WISCONSIN REGIONAL WEATHER ROUNDUP
NATIONAL WEATHER SERVICE MILWAUKEE/SULLIVAN WI
1000 AM CST SAT FEB 24 2018

NOTE: "FAIR" INDICATES FEW OR NO CLOUDS BELOW 12,000 FEET WITH NO
SIGNIFICANT WEATHER AND/OR OBSTRUCTIONS TO VISIBILITY.

WIZ001-002-006>008-014>016-023>028-241700-
NORTHWEST WISCONSIN

CITY           SKY/WX    TMP DP  RH WIND       PRES   REMARKS
SUPERIOR ARPT  FAIR      15   8  73 CALM      30.17F
ASHLAND        FAIR      21  18  88 CALM      30.17F
HAYWARD        FAIR      15  13  91 E6        30.13F WCI   6
SIREN          FAIR      14  12  91 SE3       30.12F
CUMBERLAND     LGT SNOW  14  12  92 E3        30.10F
RICE LAKE      LGT SNOW  14  12  92 CALM      30.13F
CHETEK         LGT SNOW  15  13  93 E5        30.13F WCI   7
LADYSMITH      CLOUDY    16  14  91 CALM      30.15F FOG
EAU CLAIRE     FOG       19  17  92 E10       30.11F VSB 1   WCI   7
MENOMONIE      CLOUDY    19  18  94 E3        30.11F FOG
NEW RICHMOND   FOG       17  14  88 E7        30.09F VSB 3/4 WCI   8
OSCEOLA        PTSUNNY   16  16 100 E7        30.13F FOG     WCI   6
$$

WIZ003>005-009-010-017-018-241700-
NORTH CENTRAL WISCONSIN

CITY           SKY/WX    TMP DP  RH WIND       PRES   REMARKS
MANITOWISH WTR FAIR      16  16 100 CALM      30.13F FOG
ARBOR VITAE    CLOUDY    20  18  92 S5        30.13F FOG     WCI  14
WOODRUFF       CLOUDY    20  18  92 S5        30.13F FOG     WCI  14
RHINELANDER    FAIR      21  21 100 E3        30.13F
EAGLE RIVER    CLOUDY    22  22 100 S3        30.13F
LAND O LAKES   FAIR      24  24  98 S3        30.14F
PHILLIPS       FAIR      21  21 100 CALM      30.12F
TOMAHAWK       FAIR      18  16  93 CALM      30.15F FOG
MEDFORD        FAIR      17  16  93 E3        30.12F FOG
MERRILL        FAIR      20  19  93 CALM      30.15F FOG
$$

WIZ029-030-035-036-043>047-241700-
CENTRAL WISCONSIN

CITY           SKY/WX    TMP DP  RH WIND       PRES   REMARKS
WAUSAU         FAIR      23  20  88 CALM      30.13F FOG
MOSINEE        MOSUNNY   25  25 100 E7        30.15F WCI  17
MARSHFIELD     CLOUDY    22  21  96 E6        30.12F FOG     WCI  14
STEVENS POINT  FAIR      28  23  82 SE12      30.16S WCI  17
WAUPACA        FAIR      32  25  74 E9        30.18S WCI  24
WAUTOMA        FAIR      32  24  72 E13       30.17F WCI  22
WISC RAPIDS    FAIR      29  21  72 SE10      30.16S WCI  20
CAMP DOUGLAS   PTSUNNY   28  28 100 SE13      30.14F WCI  18
$$

WIZ011>013-019>022-031-037>040-048>050-241700-
NORTHEAST WISCONSIN

CITY           SKY/WX    TMP DP  RH WIND       PRES   REMARKS
ANTIGO         FAIR      23  23 100 SE6       30.15S WCI  15
SHAWANO        FAIR      34  25  69 E10       30.18F WCI  26
OCONTO         CLOUDY    32  23  70 SE9       30.20F WCI  24
STURGEON BAY   CLOUDY    34  24  67 E3        30.21F
GREEN BAY      FAIR      33  23  66 E13       30.20F WCI  24
MANITOWOC      PTSUNNY   34  26  72 E10       30.20F WCI  26
APPLETON       PTSUNNY   30  21  69 E9        30.16F WCI  22
CLINTONVILLE   FAIR      33  23  66 SE9       30.18S WCI  25
OSHKOSH        FAIR      33  26  75 E15G21    30.17F WCI  23
$$

WIZ032>034-041-042-053>061-241700-
SOUTHWEST WISCONSIN

CITY           SKY/WX    TMP DP  RH WIND       PRES   REMARKS
LA CROSSE      FAIR      30  24  78 E9        30.12F HAZE    WCI  22
SPARTA         FAIR      28  24  86 SE12      30.14F WCI  17
VIROQUA        FAIR      28  26  94 SE16      30.09F WCI  15
BOSCOBEL       PTSUNNY   32  24  72 E7        30.14F WCI  26
PRAIRIE DU CHI CLOUDY    31  24  77 E10G18    30.09F WCI  22
PLATTEVILLE    CLOUDY    31  29  94 E10       30.11F WCI  22
$$

WIZ056-057-062-063-064-067-068-241700-
SOUTH CENTRAL WISCONSIN

CITY           SKY/WX    TMP DP  RH WIND       PRES   REMARKS
REEDSBURG      PTSUNNY   30  25  79 SE7       30.13F WCI  24
BARABOO/DELLS  PTSUNNY   30  24  80 E10       30.14F WCI  21
LONE ROCK      PTSUNNY   31  25  78 E13       30.15S HAZE    WCI  21
MINERAL POINT  CLOUDY    32  30  93 E13       30.11F WCI  22
MADISON        CLOUDY    31  26  82 E15       30.14F WCI  20
MIDDLETON      CLOUDY    32  27  82 E12       30.13F WCI  23
WATERTOWN      PTSUNNY   33  28  85 E12       30.14F WCI  24
MONROE         CLOUDY    32  28  86 NE9       30.11S WCI  24
JANESVILLE     CLOUDY    34  30  86 E13       30.13F WCI  25
$$

WIZ051-052-058>065-066-070>072-241700-
SOUTHEAST WISCONSIN

CITY           SKY/WX    TMP DP  RH WIND       PRES   REMARKS
MILWAUKEE      PTSUNNY   36  28  73 E17       30.17F WCI  26
WAUKESHA       PTSUNNY   32  25  74 E15       30.16F WCI  22
MILWAUKEE/TIMM CLOUDY    34  25  69 E10G22    30.18F WCI  26
RACINE         FAIR      37  29  72 E13       30.18F WCI  29
BURLINGTON     PTSUNNY   34  28  76 E13G18    30.14F WCI  25
KENOSHA        CLOUDY    36  28  73 E15       30.16F WCI  27
FOND DU LAC    PTSUNNY   34  24  67 E13       30.16F WCI  25
SHEBOYGAN      PTSUNNY   34  27  75 E10       30.19F WCI  26
WEST BEND      CLOUDY    32  28  86 E13G21    30.16F WCI  22
JUNEAU         CLOUDY    32  26  80 E13       30.16F WCI  22
$$

LSZ147-162-241700-
LAKE SUPERIOR

STATION/POSITION TIME  TEMP    WIND        PRES    WAVE
                       AIR SEA DIR/SP/G            HT/PER
                 (UTC) (F)     (DEG/KT/KT) (MB)    (FT/S)
DEVILS ISLAND    1600   22      CALM  /  1 1022.7F
SAXON HARBOR     1530   26      CALM  /  2 1022.0F
$$

LMZ867-665-643>646-241700-
LAKE MICHIGAN

STATION/POSITION TIME  TEMP    WIND        PRES    WAVE
                       AIR SEA DIR/SP/G            HT/PER
                 (UTC) (F)     (DEG/KT/KT) (MB)    (FT/S)
NORTHPORT PIER   1540   33                 1023.7S
KEWAUNEE LAKESHO 1554   36     100/  9/ 11 1022.2F
SHEBOYGAN LAKESH 1600   33     100/ 15/ 16 1023.1F
PORT WASHINGTON  1540   35     100/ 13/ 16 1023.4F
KENOSHA   LAKESH 1600   34     100/  9/ 11 1021.7
$$

TC  - TEMPERATURE IN CELSIUS
VSB - VISIBILITY IN STATUTE MILES
WCI - WIND CHILL INDEX
HX  - HEAT INDEX





USA.gov is the U.S. government's official web portal to all federal, state and local government web resources and services.